Weather History for PHTO - December, 2013

Change the Weather History Date:

Tuesday, December 3, 2013

  Actual Average Record
Temperature  
Mean Temperature 73 °F 73 °F  
Max Temperature 82 °F 80 °F 87 °F (1966)
Min Temperature 64 °F 66 °F 59 °F (1956)
Degree Days  
Heating Degree Days 0 0  
Month to date heating degree days 0 0  
Since 1 July heating degree days 0 0  
Cooling Degree Days 8 8  
Month to date cooling degree days 27 24  
Year to date cooling degree days 3319 3031  
Growing Degree Days 23 (Base 50)    
Moisture  
Dew Point 66 °F    
Average Humidity 81    
Maximum Humidity 100    
Minimum Humidity 62    
Precipitation  
Precipitation 0.12 in 0.40 in 2.03 in (2001)
Month to date precipitation 0.59 1.24  
Year to date precipitation 82.57 116.39  
Snow  
Snow 0.00 in - - ()
Month to date snowfall 0.0  
Since 1 July snowfall 0.0  
Snow Depth 0.00 in    
Sea Level Pressure  
Sea Level Pressure 29.97 in    
Wind  
Wind Speed 7 mph (SSW)    
Max Wind Speed 13 mph    
Max Gust Speed 16 mph    
Visibility 9 miles    
Events Rain    
T = Trace of Precipitation, MM = Missing Value Source: NWS Daily Summary

Daily Weather History Graph

Daily Weather History Graph

Search for Another Location

Airport or City:

Trip Planner

Search our weather history database for the weather conditions in past years. The results will help you decide how hot, cold, wet, or windy it might be!

Date:

Astronomy

Dec. 03, 2013 Rise Set
Actual Time 6:39 AM HST 5:40 PM HST
Civil Twilight 6:16 AM HST 6:04 PM HST
Nautical Twilight 5:48 AM HST 6:31 PM HST
Astronomical Twilight 5:22 AM HST 6:58 PM HST
Moon 7:23 AM HST (12/3) 6:52 PM HST (12/3)
Length of Visible Light 11h 48m
Length of Day
11h 00m
New Moon, 1% of the Moon is Illuminated
Dec 3
New Moon
Dec 9
First Quarter
Dec 16
Full
Dec 25
Last Quarter
Jan 1
New

Hourly Weather History & Observations

Time (HST) Temp. Heat Index Dew Point Humidity Pressure Visibility Wind Dir Wind Speed Gust Speed Precip Events Conditions
12:53 AM 66.0 °F - 63.0 °F 90% 29.99 in 10.0 mi SW 9.2 mph - N/A   Partly Cloudy
1:53 AM 66.9 °F - 62.1 °F 84% 29.98 in 10.0 mi SW 6.9 mph - N/A   Overcast
2:53 AM 66.0 °F - 62.1 °F 87% 29.97 in 10.0 mi SW 6.9 mph - N/A   Scattered Clouds
3:25 AM 66.0 °F - 64.9 °F 96% 29.97 in 9.0 mi Calm Calm - 0.00 in Rain Light Rain
3:53 AM 64.9 °F - 64.9 °F 100% 29.97 in 2.5 mi West 5.8 mph - 0.02 in Rain Rain
4:02 AM 64.9 °F - 64.9 °F 100% 29.98 in 3.0 mi WSW 6.9 mph - 0.02 in Rain Light Rain
4:53 AM 64.0 °F - 64.0 °F 100% 29.97 in 6.0 mi West 12.7 mph - 0.07 in Rain Light Rain
5:16 AM 64.9 °F - 64.0 °F 97% 29.97 in 4.0 mi West 9.2 mph - 0.02 in Rain Rain
5:53 AM 64.9 °F - 64.0 °F 97% 29.96 in 10.0 mi SW 9.2 mph - 0.03 in Rain Light Rain
6:53 AM 64.9 °F - 64.0 °F 97% 29.98 in 10.0 mi SW 6.9 mph - 0.00 in   Mostly Cloudy
7:53 AM 66.9 °F - 64.9 °F 93% 30.00 in 10.0 mi WSW 8.1 mph - N/A   Overcast
8:53 AM 71.1 °F - 66.9 °F 87% 30.01 in 10.0 mi SW 6.9 mph - N/A   Overcast
9:53 AM 75.9 °F - 68.0 °F 76% 30.00 in 10.0 mi West 6.9 mph - N/A   Overcast
10:53 AM 78.1 °F - 68.0 °F 71% 29.99 in 10.0 mi SSE 9.2 mph - N/A   Overcast
11:53 AM 78.1 °F - 68.0 °F 71% 29.96 in 10.0 mi ESE 8.1 mph - N/A   Mostly Cloudy
12:53 PM 78.1 °F - 66.9 °F 68% 29.92 in 10.0 mi SE 6.9 mph - N/A   Mostly Cloudy
1:53 PM 81.0 °F 83.3 °F 66.9 °F 62% 29.90 in 10.0 mi SSE 8.1 mph - N/A   Overcast
2:53 PM 78.1 °F - 66.0 °F 66% 29.91 in 10.0 mi ESE 10.4 mph - N/A   Mostly Cloudy
3:53 PM 78.1 °F - 66.0 °F 66% 29.92 in 10.0 mi ESE 9.2 mph - N/A   Mostly Cloudy
4:53 PM 75.9 °F - 66.0 °F 71% 29.92 in 10.0 mi ESE 6.9 mph - N/A   Scattered Clouds
5:53 PM 73.0 °F - 66.9 °F 81% 29.94 in 10.0 mi Calm Calm - N/A   Partly Cloudy
6:53 PM 72.0 °F - 66.9 °F 84% 29.97 in 10.0 mi SW 3.5 mph - N/A   Partly Cloudy
7:53 PM 71.1 °F - 66.9 °F 87% 29.99 in 10.0 mi WSW 6.9 mph - N/A   Mostly Cloudy
8:53 PM 70.0 °F - 69.1 °F 97% 30.00 in 8.0 mi SSE 4.6 mph - 0.00 in Rain Light Rain
9:53 PM 69.1 °F - 66.9 °F 93% 30.00 in 10.0 mi SW 8.1 mph - 0.00 in   Partly Cloudy
10:53 PM 69.1 °F - 64.9 °F 87% 30.01 in 10.0 mi SW 5.8 mph - N/A   Overcast
11:53 PM 66.9 °F - 66.0 °F 97% 30.00 in 10.0 mi WSW 4.6 mph - N/A   Partly Cloudy